Theta_e
327 330 331 332 333 332 330 329 329 332 329 325 323 323 322 325 324 326 331 329 328 329 330 324 325 327 324 328 329 326 326 322 327 325 326 328 336 341 342 344 345 336 343
326 328 330 331 328 328 327 327 328 330 329 326 326 324 324 323 323 323 331 330 329 327 326 328 324 326 322 327 329 326 320 322 324 320 322 319 325 332 339 339 343 338 338
324 327 328 328 325 324 323 325 328 329 329 330 326 327 326 324 320 320 321 324 325 325 327 327 325 326 324 319 323 322 322 318 321 327 322 317 317 327 331 337 341 345 342
325 327 326 324 321 322 322 325 327 328 328 329 326 327 320 318 319 319 319 322 325 324 324 327 324 324 321 321 320 321 319 319 315 320 323 328 326 319 322 331 333 343 338
324 324 323 320 321 320 322 324 326 326 326 325 325 320 321 318 318 319 324 325 324 325 319 322 322 322 319 321 320 318 322 320 317 320 319 322 324 329 325 324 332 327 324
322 321 320 321 320 321 321 323 323 323 323 322 322 324 321 321 317 318 316 316 316 316 318 318 319 319 318 319 319 320 319 321 320 321 320 319 315 316 322 322 327 323 327
319 319 318 318 319 320 321 321 320 320 321 320 319 319 321 321 321 317 313 314 314 313 316 318 318 317 319 318 320 320 319 319 319 316 319 317 318 320 323 322 322 318 313
318 318 317 318 319 320 319 320 319 319 319 319 318 318 319 315 314 315 315 313 312 312 317 317 315 317 317 317 318 320 316 319 317 316 316 319 317 320 320 319 320 317 313
316 317 318 318 318 318 319 318 317 318 318 317 318 319 317 316 315 315 314 313 313 311 313 315 315 315 315 315 316 312 313 316 315 314 316 315 318 320 316 320 320 317 312
315 316 316 317 319 319 318 321 319 317 317 316 315 315 315 314 315 313 311 312 312 312 311 312 313 311 313 312 311 312 313 311 311 311 312 314 316 318 318 315 318 319 317
314 315 314 315 316 317 315 317 318 316 315 314 315 314 312 313 313 311 309 313 309 310 309 310 309 307 308 308 308 309 310 309 309 311 310 311 314 313 317 318 316 316 316
313 313 314 314 315 314 314 315 317 314 314 313 312 311 312 312 311 308 310 311 309 309 308 308 306 305 305 306 306 306 308 307 305 308 309 308 310 311 313 313 316 316 316
311 312 312 312 312 313 313 314 315 313 312 309 310 310 309 307 308 310 309 309 307 307 306 305 306 305 306 306 306 305 306 306 306 307 307 308 309 309 311 312 314 312 315
310 311 311 311 312 312 312 312 312 310 308 308 308 309 308 308 307 307 308 305 305 304 304 306 306 307 306 306 307 307 307 305 305 306 307 307 307 309 309 312 311 314 312
308 309 309 309 309 310 310 309 308 307 307 307 305 305 306 304 309 309 309 308 308 307 308 308 309 309 309 305 306 306 306 304 304 305 306 307 306 307 306 307 306 310 311
307 307 307 307 306 305 305 306 305 306 306 304 304 304 306 307 308 308 308 309 309 309 309 310 309 308 307 301 303 305 304 305 303 303 303 304 305 305 304 304 304 304 305
306 305 305 303 300 300 302 302 303 304 303 302 304 304 307 306 307 308 309 308 310 310 309 309 309 309 308 300 300 304 305 304 303 303 302 303 303 303 302 302 302 303 303
305 304 302 302 301 299 301 302 302 302 301 304 305 306 308 306 308 308 309 310 311 310 310 310 311 311 307 300 299 302 308 306 304 305 305 305 303 302 302 302 300 302 302
304 301 302 302 302 300 300 300 301 301 304 304 306 306 308 308 308 307 309 311 311 311 310 311 310 311 309 298 299 304 309 309 307 306 302 305 304 298 298 303 301 301 301
302 301 300 300 300 299 300 300 301 304 304 306 307 307 308 308 308 309 310 312 311 311 310 310 311 306 309 297 298 302 311 309 306 307 305 298 300 296 297 306 305 302 299
300 300 299 299 301 301 301 303 304 304 307 308 308 308 308 308 310 311 311 312 311 311 311 310 311 309 306 306 297 297 310 308 306 304 303 301 296 295 296 298 302 299 302
299 299 298 299 301 304 306 304 305 307 307 307 308 307 308 308 307 310 311 311 310 308 309 309 308 307 308 299 298 297 297 301 305 303 303 300 295 295 295 299 295 296 300
298 299 299 300 305 305 306 304 306 307 307 306 306 307 307 309 310 308 309 306 308 306 305 305 304 304 306 307 299 297 297 298 303 303 298 297 296 296 297 296 296 299 301
298 300 299 300 303 305 304 305 306 307 306 306 305 306 306 308 308 308 307 304 303 303 303 303 303 304 304 302 304 303 302 300 301 300 301 298 298 296 298 299 299 301 301
299 300 304 302 302 303 304 305 307 307 306 306 305 306 306 308 308 305 304 304 302 300 302 302 301 298 299 299 296 296 301 301 299 300 300 299 297 296 297 297 298 300 300
299 303 302 303 302 303 305 307 308 307 306 305 304 303 304 305 308 303 304 294 295 295 293 292 296 299 294 293 293 293 293 293 295 298 296 295 295 295 295 295 296 299 300
Wind_Speed
12 11 8 7 7 6 5 5 6 8 8 8 10 9 10 10 11 11 12 12 12 14 11 12 14 13 13 12 13 13 14 12 13 13 13 14 17 18 16 15 5 8 8
12 12 9 6 4 5 5 5 7 9 9 8 8 8 9 11 12 12 11 13 15 14 13 14 13 15 14 14 13 12 11 13 12 13 13 11 14 13 16 15 6 9 8
12 12 10 6 3 5 4 5 7 9 9 11 9 9 10 11 12 13 13 12 15 16 16 15 15 13 12 13 14 13 12 10 13 14 9 7 9 14 10 13 12 11 9
14 10 9 6 3 2 2 5 7 8 9 10 10 12 12 13 13 14 13 13 15 16 17 14 15 16 14 11 12 10 11 11 13 14 12 9 11 8 11 9 6 10 3
7 8 8 3 1 3 4 4 6 7 9 10 12 12 14 14 14 14 16 15 16 12 17 16 17 14 12 14 13 13 13 10 12 12 11 13 11 12 8 12 7 0 4
8 4 3 0 7 6 5 6 7 8 11 12 14 14 15 16 14 15 14 13 13 12 11 14 13 14 13 14 12 12 13 11 12 9 9 9 4 7 7 7 9 7 3
7 7 8 10 6 7 6 8 9 11 13 14 15 16 16 16 17 15 15 14 12 12 13 15 13 11 12 12 11 11 11 10 8 10 11 5 7 7 9 8 9 5 2
7 8 7 7 10 10 7 10 11 11 13 15 17 16 16 13 12 12 12 11 10 10 14 13 13 14 15 11 10 9 9 9 8 9 8 9 7 5 7 5 8 8 2
6 7 8 9 8 8 9 9 10 12 14 17 15 15 14 14 12 12 11 8 10 10 12 14 12 14 12 10 10 6 9 10 9 9 8 7 6 6 5 5 5 5 3
7 8 9 8 8 5 9 9 9 10 15 18 17 16 16 13 13 11 13 12 12 11 12 13 12 10 9 10 8 8 7 9 7 6 8 8 5 7 4 5 3 4 2
12 11 11 10 11 14 11 10 8 12 15 17 18 17 16 14 11 11 9 11 10 11 9 11 10 9 9 9 8 9 8 9 9 7 7 10 7 5 5 4 4 4 1
11 14 14 15 15 16 15 14 12 14 16 19 18 17 12 10 12 9 11 11 11 11 11 10 9 9 8 7 8 10 10 8 9 9 9 8 7 8 5 6 4 5 5
15 15 15 15 16 17 13 14 13 14 16 16 14 9 8 8 11 12 10 10 10 9 9 9 8 8 8 8 8 9 9 8 8 9 9 11 9 6 6 7 5 5 4
18 17 17 16 15 12 10 11 12 15 14 14 10 12 11 10 9 9 9 7 7 8 8 8 7 7 5 6 8 8 7 6 8 8 7 7 7 10 9 7 9 4 4
17 19 20 21 21 20 18 15 12 12 12 12 11 8 8 8 8 8 5 5 7 8 10 10 9 5 6 7 10 9 7 6 7 6 9 7 11 14 14 8 8 8 4
21 21 21 21 21 18 14 13 9 10 10 10 8 8 8 9 8 7 8 9 8 8 8 8 5 4 6 8 9 9 5 6 7 7 8 8 12 10 13 14 14 12 6
20 20 21 20 17 16 13 12 9 8 7 7 7 7 7 9 8 7 9 6 6 4 5 6 6 5 7 9 6 6 2 4 6 6 6 5 6 8 6 8 12 12 12
19 18 16 15 14 12 10 11 9 5 5 6 6 6 9 8 7 8 8 7 8 7 5 4 5 6 9 10 8 7 3 5 4 6 7 6 4 7 7 5 5 6 8
16 13 14 16 13 8 10 9 4 4 5 5 7 7 8 10 7 5 6 7 6 6 7 8 8 8 11 14 12 5 3 6 7 7 9 8 10 12 14 5 4 6 7
13 13 13 12 11 10 8 2 4 4 7 8 7 8 8 8 9 9 8 7 7 7 7 8 9 11 10 14 13 12 5 7 6 7 6 14 12 14 17 10 8 8 6
12 12 10 10 8 5 2 3 3 5 7 6 7 7 6 3 8 9 6 7 8 8 8 8 9 9 11 12 14 17 8 5 5 7 7 7 11 12 12 11 9 7 6
11 10 9 6 4 1 3 5 7 7 5 5 6 8 10 9 8 8 7 9 10 10 8 7 7 7 7 11 10 10 9 12 7 5 5 7 9 12 13 9 10 10 8
8 7 5 2 4 4 5 5 8 7 6 6 5 8 9 9 9 9 9 7 9 9 8 8 8 5 4 4 2 0 6 9 7 8 6 4 7 5 7 11 11 7 6
6 4 3 4 3 4 6 6 8 7 7 6 6 6 5 8 10 9 7 10 11 10 10 9 9 9 8 8 10 7 1 2 1 2 5 8 8 9 8 6 7 7 6
3 4 3 5 6 4 5 7 9 8 9 10 9 11 9 9 7 11 10 9 11 10 9 9 7 9 9 9 7 7 8 7 7 4 7 7 6 5 5 7 7 6 6
3 3 3 2 4 3 6 6 6 11 13 9 8 7 9 5 7 3 5 10 8 10 10 10 11 4 7 9 9 8 8 9 8 6 6 6 5 6 6 6 6 6 8
Wind_Direction
169 165 154 169 136 92 76 50 48 31 6 4 354 345 343 334 329 322 315 319 321 312 321 317 324 319 307 321 302 301 301 304 301 303 303 298 297 268 270 275 309 348 334
162 181 168 175 137 109 53 53 34 26 8 360 343 337 328 325 319 307 325 335 314 326 319 320 316 309 308 299 295 287 301 296 302 304 308 302 302 266 246 257 240 138 222
193 178 186 186 186 88 51 42 19 12 360 2 331 337 327 317 316 326 321 309 332 320 311 313 296 300 304 299 322 310 318 308 307 295 284 299 288 326 299 283 261 216 172
198 177 187 195 144 34 39 20 9 1 358 346 335 331 309 312 325 300 311 319 310 308 291 310 323 310 303 308 293 302 300 298 295 290 288 293 297 289 293 246 347 354 69
178 188 202 140 153 247 343 307 358 344 340 338 334 324 316 317 310 312 309 319 289 312 321 316 303 305 304 301 305 293 292 288 286 292 300 304 309 287 276 278 281 188 166
198 204 169 194 258 255 289 334 329 346 339 337 327 322 318 317 313 310 307 306 326 315 295 309 321 314 311 304 304 290 288 279 285 295 294 305 306 314 305 309 312 301 253
212 219 221 231 238 280 308 324 333 331 339 332 328 328 321 316 297 332 315 313 318 299 335 323 315 309 304 299 296 300 290 285 300 304 299 292 295 298 297 295 296 275 356
253 237 291 311 302 313 342 313 329 339 326 330 330 326 320 315 328 318 324 324 322 323 317 316 311 317 312 321 312 307 304 296 292 289 299 296 286 297 304 310 311 306 7
254 286 297 293 309 323 302 315 317 309 327 332 326 322 324 337 316 331 327 321 322 323 322 310 322 322 313 330 327 318 313 323 320 314 297 296 296 294 315 310 320 311 317
308 278 267 301 325 325 293 291 302 317 344 327 327 326 341 316 326 331 327 320 331 318 315 327 327 326 324 336 330 317 322 321 315 315 315 303 297 292 294 305 316 314 304
326 321 352 336 314 315 322 286 329 341 325 334 336 334 324 313 339 329 308 316 315 322 324 321 339 339 340 341 329 310 315 318 316 311 316 318 314 321 322 312 306 302 273
310 320 314 306 303 341 360 335 338 345 351 332 331 320 341 344 340 320 316 330 325 319 333 342 335 328 321 313 301 324 319 323 324 326 332 339 344 347 332 310 320 312 331
315 318 324 341 344 332 339 326 346 337 337 332 321 359 359 343 312 329 324 335 332 334 337 322 318 322 322 335 333 323 316 320 326 330 329 331 331 337 326 324 316 328 350
325 339 339 333 341 360 351 317 330 352 343 334 342 331 338 328 327 313 330 325 319 313 309 303 300 302 311 313 311 300 312 338 338 326 322 323 23 20 355 340 355 295 318
349 342 339 335 327 341 341 349 344 345 347 328 344 321 326 305 303 326 327 326 304 299 296 304 302 306 352 4 344 347 25 9 347 13 20 51 50 41 33 8 354 3 348
345 339 335 328 339 334 330 336 337 347 340 314 329 324 306 303 318 319 322 306 300 309 317 340 21 57 34 4 8 15 16 11 22 36 30 29 29 33 33 31 37 27 2
342 340 343 342 338 334 337 329 353 348 332 322 306 307 300 307 311 307 300 312 328 342 1 16 18 20 46 6 354 1 28 41 45 42 35 41 33 23 12 27 26 32 32
350 350 342 336 340 335 330 342 328 2 309 290 288 313 320 319 332 347 354 350 342 350 0 0 38 41 49 1 351 335 226 112 59 39 28 41 21 20 343 340 39 20 27
358 346 341 340 332 351 335 325 351 288 280 312 319 350 340 348 20 7 356 3 345 3 359 15 34 47 48 9 358 346 67 97 92 63 37 11 41 356 349 177 83 43 21
358 344 340 333 337 337 319 354 260 301 332 345 353 4 342 8 356 346 7 8 4 9 1 58 50 48 40 29 5 4 359 62 90 92 78 51 22 8 5 4 44 71 33
347 343 338 334 337 316 301 243 295 337 337 322 11 11 326 5 18 18 0 18 18 16 31 58 59 52 34 41 21 8 22 42 51 51 45 34 15 22 27 20 37 23 69
345 346 336 353 338 227 308 351 356 356 356 21 20 9 15 11 10 10 13 26 18 20 23 20 82 62 32 23 36 15 13 356 46 50 77 66 30 45 33 35 11 16 81
346 341 353 322 325 359 14 349 36 3 8 42 31 22 28 18 357 40 12 38 26 13 35 27 36 12 31 59 255 298 3 29 19 45 53 35 68 37 48 38 24 34 75
341 352 284 294 15 22 28 24 22 8 8 9 15 7 353 27 24 48 35 34 18 5 22 24 3 353 30 25 8 12 165 33 181 87 74 78 74 59 30 54 50 55 61
12 259 297 351 34 351 17 23 4 351 359 356 13 340 341 75 59 58 22 51 49 28 17 12 39 4 356 1 350 4 7 11 28 44 57 53 50 50 53 56 56 60 66
214 245 317 333 299 339 24 21 357 18 16 5 357 358 1 19 78 75 94 59 84 60 37 35 38 18 13 359 18 22 21 12 31 57 53 52 48 53 54 56 61 56 65